Nellis AFB, NV

2:55 AM PST on December 09, 2019 (GMT -0800)
Nellis Air Force Base

Weather History for KLSV - October, 2019

Change the Weather History Date:

Sunday, October 20, 2019

  Actual Average Record
Temperature  
Mean Temperature 64 °F -  
Max Temperature 74 °F 77 °F 93 °F (2003)
Min Temperature 53 °F 51 °F 46 °F (2013)
Degree Days  
Heating Degree Days 1    
Growing Degree Days 14 (Base 50)    
Moisture  
Dew Point 18 °F    
Average Humidity 17    
Maximum Humidity 27    
Minimum Humidity 9    
Precipitation  
Precipitation 0.00 in - - ()
Sea Level Pressure  
Sea Level Pressure 29.94 in    
Wind  
Wind Speed 10 mph (NNE)    
Max Wind Speed 25 mph    
Max Gust Speed 33 mph    
Visibility 10 miles    
Events      
Averages and records for this station are not official NWS values.
T = Trace of Precipitation, MM = Missing Value Source: NWS Daily Summary

Daily Weather History Graph

Daily Weather History Graph

Search for Another Location

Airport or City:

Astronomy

Oct. 20, 2019 Rise Set
Actual Time 6:51 AM PDT 5:57 PM PDT
Civil Twilight 6:25 AM PDT 6:23 PM PDT
Nautical Twilight 5:55 AM PDT 6:53 PM PDT
Astronomical Twilight 5:25 AM PDT 7:23 PM PDT
Moon 11:17 PM PDT (10/20) 1:16 PM PDT (10/20)
Length of Visible Light 11h 58m
Length of Day
11h 06m
Waning Gibbous, 58% of the Moon is Illuminated
Oct 20
Waning Gibbous
Oct 21
Last Quarter
Oct 27
New
Nov 4
First Quarter
Nov 12
Full

Hourly Weather History & Observations

Time (PDT) Temp. Dew Point Humidity Pressure Visibility Wind Dir Wind Speed Gust Speed Precip Events Conditions
12:58 AM 61.5 °F 10.2 °F 13% 29.78 in 10.0 mi North 4.6 mph - N/A   Clear
1:58 AM 63.7 °F 11.8 °F 13% 29.78 in 10.0 mi NE 4.6 mph - N/A   Clear
2:12 AM 62.6 °F 14.0 °F 15% 29.79 in 10.0 mi WNW 15.0 mph 26.5 mph N/A   Clear
2:59 AM 62.4 °F 14.2 °F 15% 29.82 in 10.0 mi North 6.9 mph - N/A   Clear
3:58 AM 65.5 °F 30.6 °F 27% 29.82 in 10.0 mi North 4.6 mph - N/A   Clear
4:58 AM 64.4 °F 29.7 °F 27% 29.86 in 10.0 mi NNW 17.3 mph - N/A   Clear
5:16 AM 64.4 °F 28.4 °F 26% 29.87 in 10.0 mi NW 11.5 mph 29.9 mph N/A   Clear
5:54 AM 64.4 °F 28.4 °F 26% 29.89 in 10.0 mi NNE 13.8 mph 21.9 mph N/A   Clear
5:58 AM 63.7 °F 29.1 °F 27% 29.89 in 10.0 mi NNE 15.0 mph 23.0 mph N/A   Clear
6:58 AM 62.1 °F 27.7 °F 27% 29.94 in 10.0 mi NNW 9.2 mph - N/A   Clear
7:58 AM 62.8 °F 24.4 °F 23% 29.98 in 10.0 mi NNW 23.0 mph 29.9 mph N/A   Clear
8:58 AM 64.6 °F 21.4 °F 19% 30.01 in 10.0 mi North 23.0 mph 33.4 mph N/A   Clear
9:58 AM 66.2 °F 21.4 °F 18% 30.03 in 10.0 mi North 25.3 mph 32.2 mph N/A   Clear
10:58 AM 68.0 °F 20.1 °F 16% 30.02 in 10.0 mi North 23.0 mph - N/A   Clear
11:58 AM 70.2 °F 20.3 °F 15% 30.01 in 10.0 mi North 20.7 mph - N/A   Clear
12:58 PM 71.2 °F 19.6 °F 14% 30.01 in 10.0 mi North 12.7 mph - N/A   Clear
1:10 PM 71.6 °F 19.4 °F 14% 30.01 in 10.0 mi NNE 15.0 mph 20.7 mph N/A   Clear
1:51 PM 71.6 °F 19.4 °F 14% 29.98 in 10.0 mi NNW 13.8 mph - N/A   Clear
1:58 PM 72.3 °F 18.7 °F 13% 29.98 in 10.0 mi North 11.5 mph - N/A   Clear
2:58 PM 72.9 °F 17.2 °F 12% 29.96 in 10.0 mi North 9.2 mph - N/A   Clear
3:58 PM 74.1 °F 12.6 °F 10% 29.95 in 10.0 mi ENE 8.1 mph 17.3 mph N/A   Clear
4:59 PM 73.8 °F 11.8 °F 9% 29.95 in 10.0 mi NE 10.4 mph - N/A   Clear
5:58 PM 71.2 °F 11.3 °F 10% 29.95 in 10.0 mi NE 6.9 mph - N/A   Clear
6:56 PM 65.3 °F 9.7 °F 11% 29.98 in 10.0 mi NE 2.3 mph - N/A   Clear
7:58 PM 63.1 °F 9.0 °F 12% 29.99 in 10.0 mi ENE 3.5 mph - N/A   Clear
8:56 PM 63.5 °F 9.9 °F 12% 30.01 in 10.0 mi NNW 2.3 mph - N/A   Clear
9:59 PM 59.7 °F 9.0 °F 13% 30.01 in 10.0 mi ENE 3.5 mph - N/A   Clear
10:56 PM 54.9 °F 7.0 °F 15% 30.03 in 10.0 mi ENE 2.3 mph - N/A   Clear
11:58 PM 53.6 °F 7.5 °F 16% 30.03 in 10.0 mi East 1.2 mph - N/A   Clear